User: anonymous   Login
Location: Unspecified
(0.0000°N, 0.0000°E)
Time: 21:07:59
(UTC+00:00)
Language:

HBTSS-SV2 - Orbit

View from above orbital plane
View from above orbital plane
View from above satellite
View from above satellite

Ground track
Ground track

The orbit is defined by the following mean orbital elements,

1 58955U          26145.34134601 +.00000000 +00000-0 +78851-4 0 00008
2 58955  39.9892 148.8585 0018724 109.5110 250.7661 13.70466177    01
Epoch (UTC): 25 May 2026 08:11:32
Eccentricity: 0.0018724
inclination: 39.9892°
perigee height: 984 km
apogee height: 1012 km
right ascension of ascending node: 148.8585°
argument of perigee: 109.5110°
revolutions per day: 13.70466177
mean anomaly at epoch: 250.7661°

The dashed part of the orbit path shows where the satellite is in the earth's shadow,  

DLR